This demonstration page uses our WeatherBlox Daily Observations layout. Learn more.

Left ArrowRight Arrow

38.88101, -77.10428

Hourly Observations for October 2, 2021

Temp ( °F °C ) Dew Point ( °F °C ) Humidity (%) Winds ( mph kmh ) Pressure ( in mb ) Visibility ( mi km ) Precip ( " mm )
12:52 am 00:52 Mostly Clear 58 14.4 53 11.7 84 84 SW 5 7 30.25 1024 10 16 0.00 0.00
1:52 am 01:52 Mostly Clear 59 15 53 11.7 81 81 SW 5 7 30.24 1024 10 16 0.00 0.00
2:52 am 02:52 Clear 59 15 54 12.2 83 83 SSW 3 6 30.24 1024 10 16 0.00 0.00
3:52 am 03:52 Clear 57 13.9 54 12.2 90 90 SW 5 7 30.23 1024 10 16 0.00 0.00
4:52 am 04:52 Clear 57 13.9 54 12.2 90 90 SW 5 7 30.23 1024 10 16 0.00 0.00
5:52 am 05:52 Mostly Clear 57 13.9 54 12.2 90 90 WSW 3 6 30.23 1024 10 16 0.00 0.00
6:52 am 06:52 Mostly Clear 58 14.4 54 12.2 87 87 Calm 30.23 1024 10 16 0.00 0.00
7:52 am 07:52 Mostly Sunny 58 14.4 54 12.2 87 87 WSW 3 6 30.24 1024 10 16 0.00 0.00
8:52 am 08:52 Partly Cloudy 62 16.7 56 13.3 80 80 SSW 7 11 30.23 1024 10 16 0.00 0.00
9:52 am 09:52 Partly Cloudy 64 17.8 58 14.4 81 81 S 9 15 30.22 1024 10 16 0.00 0.00
10:52 am 10:52 Mostly Cloudy 68 20 59 15 73 73 S 9 15 30.20 1023 10 16 0.00 0.00
11:52 am 11:52 Mostly Cloudy 71 21.7 59 15 66 66 S 10 17 30.19 1022 10 16 0.00 0.00
12:52 pm 12:52 Mostly Cloudy 74 23.3 59 15 60 60 SSE 7 11 30.16 1022 10 16 0.00 0.00
1:52 pm 13:52 Partly Cloudy 76 24.4 60 15.6 58 58 S 12 19 30.14 1021 10 16 0.00 0.00
2:52 pm 14:52 Mostly Cloudy 77 25 61 16.1 58 58 S 10 17 30.11 1020 10 16 0.00 0.00
3:52 pm 15:52 Mostly Cloudy 78 25.6 61 16.1 56 56 SSE 9 15 30.09 1019 10 16 0.00 0.00
4:52 pm 16:52 Mostly Cloudy 78 25.6 61 16.1 56 56 S 7 11 30.09 1019 10 16 0.00 0.00
5:52 pm 17:52 Mostly Cloudy 77 25 59 15 54 54 SW 9 15 30.08 1019 10 16 0.00 0.00
6:52 pm 18:52 Cloudy 74 23.3 62 16.7 67 67 S 6 9 30.08 1019 10 16 0.00 0.00
7:52 pm 19:52 Cloudy 71 21.7 65 18.3 81 81 SSE 5 7 30.08 1019 10 16 0.00 0.00
8:52 pm 20:52 Mostly Cloudy 71 21.7 62 16.7 73 73 S 5 7 30.09 1019 10 16 0.00 0.00
9:52 pm 21:52 Cloudy 69 20.6 64 17.8 84 84 SSW 5 7 30.09 1019 10 16 0.00 0.00
10:52 pm 22:52 Cloudy 68 20 63 17.2 84 84 Calm 30.08 1019 10 16 0.00 0.00
11:52 pm 23:52 Cloudy 68 20 64 17.8 87 87 Calm 30.08 1019 10 16 0.00 0.00

Powered by AerisWeather